Location: Karcze
(52.0945°N, 22.4786°E)
Time: 12:49:45
(UTC+00:00)

BREEZE-M DEB (TANK) - Pass Details

Date: 14 July 2020
Orbit: 427 x 13238 km, 46.0° (Epoch: 07 August)

Event Time Altitude Azimuth Distance (km) Brightness Sun altitude
Rises 00:11:47 0° 259° (W) 5,454 7.5 -13.4°
Reaches altitude 10° 00:16:46 10° 254° (WSW) 3,227 6.3 -13.1°
Maximum altitude 00:22:35 39° 186° (S) 948 3.5 -12.7°
Drops below altitude 10° 00:25:31 10° 115° (ESE) 1,618 5.2 -12.5°
Sets 00:27:12 0° 105° (ESE) 2,392 6.2 -12.4°
